Weather reports worldwide

Advertisment
La Hague, France (7020): temperature & dewpoint: 17.04.2019 19:00:00 - 23.04.2019 19:00:00 (CEST)La Hague, France (7020): wind speed & gusts: 17.04.2019 19:00:00 - 23.04.2019 19:00:00 (CEST)La Hague, France (7020): wind direction: 17.04.2019 19:00:00 - 23.04.2019 19:00:00 (CEST)La Hague, France (7020): reduced air pressure: 17.04.2019 19:00:00 - 23.04.2019 19:00:00 (CEST)La Hague, France (7020): visibility: 17.04.2019 19:00:00 - 23.04.2019 19:00:00 (CEST)La Hague, France (7020): precipitation: 17.04.2019 19:00:00 - 23.04.2019 19:00:00 (CEST)
Date & Time tt [°C] td [°C] ff [km/h] ff [kn] fx [km/h] fx [kn] dd ppp [hPa] vv [km] rr [mm]
23.04.2019 19:00:00 - - - - - - - - - -
23.04.2019 18:00:00 15,8 9,7 8 4 18 10 E 994,6 - 0,0
23.04.2019 17:00:00 15,9 9,1 14 8 19 10 E 994,9 10 0,0
23.04.2019 16:00:00 15,5 9,6 11 6 17 9 E 995,1 - 0,0
23.04.2019 15:00:00 15,7 10,2 9 5 13 7 E 995,3 - 0,0
23.04.2019 14:00:00 15,5 9,6 0 0 8 5 N 995,7 10 0,8
23.04.2019 13:00:00 17,3 9,2 6 3 - - SSW 995,9 - 0,0
23.04.2019 12:00:00 15,0 9,4 - - - - - 996,2 - 0,0
23.04.2019 11:00:00 16,7 8,1 9 5 22 12 S 996,0 - 0,0
23.04.2019 10:00:00 16,1 9,3 13 7 18 10 S 996,0 - 0,0
23.04.2019 09:00:00 13,7 9,1 6 3 26 14 ESE 996,2 - 0,0
23.04.2019 08:00:00 11,3 8,2 11 6 18 10 ESE 996,0 - 0,0
23.04.2019 07:00:00 11,7 7,2 18 10 32 17 E 995,9 - 0,0
23.04.2019 06:00:00 14,2 10,8 19 10 29 15 SE 996,1 - 0,0
23.04.2019 05:00:00 11,9 9,1 21 11 27 15 E 996,5 10 0,0
23.04.2019 04:00:00 11,8 9,0 20 11 28 15 E 997,2 - 0,0
23.04.2019 03:00:00 11,7 8,9 16 8 19 11 E 997,9 - 0,0
23.04.2019 02:00:00 12,0 8,8 14 8 22 12 E 998,4 10 0,0
23.04.2019 01:00:00 12,5 9,5 17 9 26 14 E 999,0 - 0,0
23.04.2019 00:00:00 12,1 9,3 16 9 22 12 E 999,4 - 0,0
22.04.2019 23:00:00 12,8 9,4 15 8 19 10 E 1000,4 10 0,0
22.04.2019 22:00:00 14,8 10,2 17 9 26 14 E 1000,6 - 0,0
22.04.2019 21:00:00 13,8 10,6 14 8 21 12 E 1000,7 - 0,0
22.04.2019 20:00:00 12,4 9,4 11 6 29 15 NE 1000,5 10 0,0
22.04.2019 19:00:00 13,6 10,4 19 11 29 16 E 1001,5 - 0,0
22.04.2019 18:00:00 13,7 9,5 16 9 22 12 ENE 1001,9 - 0,0
22.04.2019 17:00:00 14,3 9,5 14 8 18 10 E 1002,2 10 0,0
22.04.2019 16:00:00 15,9 8,6 3 1 20 11 WSW 1002,8 - 0,0
22.04.2019 15:00:00 16,7 9,1 16 9 29 16 SSW 1003,4 - 0,0
22.04.2019 14:00:00 17,9 9,5 18 10 26 14 SSW 1003,8 10 0,0
22.04.2019 13:00:00 17,1 10,7 17 9 23 13 SSW 1004,3 - 0,0
22.04.2019 12:00:00 15,6 9,9 6 3 18 10 NW 1004,9 - 0,0
22.04.2019 11:00:00 15,8 10,8 10 5 17 9 SW 1005,2 6 0,0
22.04.2019 10:00:00 13,8 9,8 3 2 14 7 WNW 1005,6 - 0,0
22.04.2019 09:00:00 13,6 10,2 6 3 18 10 E 1005,7 - 0,0
22.04.2019 08:00:00 13,5 8,3 9 5 18 10 E 1006,3 8 0,0
22.04.2019 07:00:00 10,8 7,7 8 5 16 8 ENE 1006,4 - 0,0
22.04.2019 06:00:00 10,1 7,0 6 4 23 12 E 1007,0 - 0,0
22.04.2019 05:00:00 10,7 7,4 12 6 19 10 ENE 1008,0 8 0,0
22.04.2019 04:00:00 10,2 7,6 16 9 24 13 E 1008,8 - 0,0
22.04.2019 03:00:00 10,0 7,8 19 10 23 12 E 1009,8 - 0,2
22.04.2019 02:00:00 10,0 7,9 17 9 21 11 E 1010,7 8 0,0
22.04.2019 01:00:00 10,2 8,0 17 9 22 12 E 1011,7 - 0,0
22.04.2019 00:00:00 10,3 8,1 16 9 20 11 E 1012,5 - 0,0
21.04.2019 23:00:00 10,1 7,7 14 8 19 10 E 1013,1 8 0,0
21.04.2019 22:00:00 10,4 7,6 14 8 19 10 E 1013,7 - 0,0
21.04.2019 21:00:00 11,5 7,6 16 9 23 12 E 1014,2 - 0,0
21.04.2019 20:00:00 12,8 8,1 16 9 25 14 E 1014,6 8 0,0
21.04.2019 19:00:00 13,4 8,2 18 10 27 15 ENE 1015,0 - 0,0
21.04.2019 18:00:00 14,2 8,6 22 12 29 16 ENE 1015,7 - 0,0
21.04.2019 17:00:00 14,6 9,2 23 12 29 16 ENE 1016,5 8 0,0
21.04.2019 16:00:00 15,2 9,3 21 11 28 15 ENE 1017,3 - 0,0
21.04.2019 15:00:00 15,0 9,8 19 10 25 14 ENE 1018,3 - 0,0
21.04.2019 14:00:00 14,7 9,7 17 9 23 13 ENE 1019,3 8 0,0
21.04.2019 13:00:00 14,1 8,9 16 8 21 11 ENE 1019,9 - 0,0
21.04.2019 12:00:00 15,2 8,4 15 8 26 14 ENE 1020,4 - 0,0
21.04.2019 11:00:00 15,4 7,4 19 10 27 14 E 1021,0 10 0,0
21.04.2019 10:00:00 14,8 8,1 16 9 24 13 E 1021,4 - 0,0
21.04.2019 09:00:00 13,5 7,9 16 9 23 12 E 1021,7 - 0,0
21.04.2019 08:00:00 10,8 7,1 16 9 20 11 E 1022,0 10 0,0
21.04.2019 07:00:00 9,1 6,0 17 9 21 11 E 1022,2 - 0,0
21.04.2019 06:00:00 9,7 6,4 15 8 23 12 ENE 1022,5 - 0,0
21.04.2019 05:00:00 10,0 6,2 17 9 21 11 ENE 1023,0 10 0,0
21.04.2019 04:00:00 10,3 5,7 18 10 21 11 E 1023,7 - 0,0
21.04.2019 03:00:00 10,4 5,8 17 9 19 10 E 1024,3 - 0,0
21.04.2019 02:00:00 10,7 5,7 16 9 21 12 E 1025,2 10 0,0
21.04.2019 01:00:00 10,3 5,5 13 7 21 11 E 1025,8 - 0,0
21.04.2019 00:00:00 10,1 6,1 13 7 17 9 E 1026,0 - 0,0
20.04.2019 23:00:00 10,2 6,5 14 7 17 9 E 1026,3 10 0,0
20.04.2019 22:00:00 10,8 6,7 9 5 10 6 ENE 1026,5 - 0,0
20.04.2019 21:00:00 12,9 7,6 7 4 17 9 ENE 1026,2 - 0,0
20.04.2019 20:00:00 15,5 8,2 13 7 22 12 E 1026,1 10 0,0
20.04.2019 19:00:00 16,0 9,0 17 9 29 16 E 1026,3 - 0,0
20.04.2019 18:00:00 15,8 9,2 21 11 30 16 E 1026,5 - 0,0
20.04.2019 17:00:00 15,9 9,3 23 13 30 16 E 1027,0 10 0,0
20.04.2019 16:00:00 15,6 10,1 21 12 28 15 E 1027,7 - 0,0
20.04.2019 15:00:00 15,0 10,2 18 10 23 12 ENE 1028,3 - 0,0
20.04.2019 14:00:00 14,5 9,9 17 9 22 12 ENE 1028,8 10 0,0
20.04.2019 13:00:00 14,3 10,1 15 8 21 11 ENE 1029,2 - 0,0
20.04.2019 12:00:00 14,2 9,2 10 5 13 7 NE 1029,5 - 0,0
20.04.2019 11:00:00 14,0 8,8 7 4 14 8 NNE 1029,7 10 0,0
20.04.2019 10:00:00 13,8 8,2 10 5 16 8 NE 1029,6 - 0,0
20.04.2019 09:00:00 13,8 8,6 9 5 14 7 ENE 1029,5 - 0,0
20.04.2019 08:00:00 10,5 6,6 12 6 18 10 E 1029,4 6 0,0
20.04.2019 07:00:00 9,4 5,6 15 8 21 12 E 1029,1 - 0,0
20.04.2019 06:00:00 9,2 5,9 15 8 18 10 E 1029,1 - 0,0
20.04.2019 05:00:00 9,9 6,4 16 8 23 12 ENE 1029,1 6 0,0
20.04.2019 04:00:00 10,7 6,6 19 10 26 14 E 1029,0 - 0,0
20.04.2019 03:00:00 10,6 6,9 14 8 21 11 E 1029,0 - 0,0
20.04.2019 02:00:00 11,1 7,8 18 10 26 14 E 1029,0 6 0,0
20.04.2019 01:00:00 10,3 7,5 17 9 20 11 E 1029,1 - 0,0
20.04.2019 00:00:00 10,3 7,7 13 7 16 9 ENE 1029,5 - 0,0
19.04.2019 23:00:00 10,5 8,1 11 6 18 10 NE 1029,4 6 0,0
19.04.2019 22:00:00 10,8 8,0 5 3 10 5 NNE 1029,0 - 0,0
19.04.2019 21:00:00 11,4 7,9 6 3 14 7 NE 1028,3 - 0,0
19.04.2019 20:00:00 13,0 8,1 10 6 16 8 NE 1027,7 6 0,0
19.04.2019 19:00:00 15,3 9,0 13 7 23 12 ENE 1027,3 - 0,0
19.04.2019 18:00:00 16,3 9,7 17 9 24 13 E 1027,1 - 0,0
19.04.2019 17:00:00 15,0 9,6 20 11 29 16 E 1027,1 - 0,0
19.04.2019 16:00:00 13,6 9,4 23 13 29 16 E 1027,1 - 0,0
19.04.2019 15:00:00 14,7 10,7 23 12 31 17 ENE 1027,1 - 0,0
19.04.2019 14:00:00 13,9 10,1 19 11 25 14 ENE 1026,7 6 0,0
19.04.2019 13:00:00 13,8 10,6 15 8 21 11 ENE 1026,7 - 0,0
19.04.2019 12:00:00 13,3 10,3 15 8 18 10 ENE 1026,6 - 0,0
19.04.2019 11:00:00 13,1 10,5 13 7 16 9 ENE 1026,3 - 0,0
19.04.2019 10:00:00 12,4 9,9 12 6 23 12 ENE 1025,9 - 0,0
19.04.2019 09:00:00 11,5 9,4 16 9 21 11 ENE 1025,4 - 0,0
19.04.2019 08:00:00 10,3 8,4 17 9 24 13 E 1024,9 8 0,0
19.04.2019 07:00:00 9,7 7,8 17 9 22 12 E 1024,1 - 0,0
19.04.2019 06:00:00 9,0 7,0 16 9 21 11 E 1023,6 - 0,0
19.04.2019 05:00:00 9,2 7,1 17 9 20 11 E 1023,4 8 0,0
19.04.2019 04:00:00 9,4 7,0 17 9 21 11 E 1023,1 - 0,0
19.04.2019 03:00:00 9,9 7,3 18 10 22 12 E 1023,0 - 0,0
19.04.2019 02:00:00 10,1 7,3 18 10 21 11 ENE 1023,1 - 0,0
19.04.2019 01:00:00 10,0 7,1 16 8 19 11 E 1022,9 - 0,0
19.04.2019 00:00:00 10,1 7,3 18 10 20 11 E 1022,4 - 0,0
18.04.2019 23:00:00 9,6 7,0 15 8 16 9 E 1022,2 4,0 0,0
18.04.2019 22:00:00 9,8 7,0 11 6 14 8 ENE 1022,0 - 0,0
18.04.2019 21:00:00 11,3 7,8 13 7 25 14 E 1021,4 - 0,0
18.04.2019 20:00:00 12,9 9,2 20 11 34 19 E 1020,8 4,0 0,0
18.04.2019 19:00:00 13,3 9,4 26 14 40 21 E 1020,1 - 0,0
18.04.2019 18:00:00 13,5 9,7 30 16 43 23 E 1019,6 - 0,0
18.04.2019 17:00:00 12,9 9,9 25 14 41 22 E 1019,5 4,0 0,0
18.04.2019 16:00:00 12,9 10,1 27 14 38 21 E 1019,5 - 0,0
18.04.2019 15:00:00 12,6 10,0 27 14 35 19 E 1019,5 - 0,0
18.04.2019 14:00:00 12,5 9,9 26 14 35 19 ENE 1019,5 4,0 0,0
18.04.2019 13:00:00 12,5 9,9 26 14 35 19 ENE 1019,5 - 0,0
18.04.2019 12:00:00 12,7 10,1 23 12 36 20 ENE 1019,6 - 0,0
18.04.2019 11:00:00 12,4 10,1 27 14 34 19 E 1019,2 6 0,0
18.04.2019 10:00:00 11,5 9,4 27 15 37 20 E 1018,9 - 0,0
18.04.2019 09:00:00 11,1 9,2 23 12 34 18 E 1018,5 - 0,0
18.04.2019 08:00:00 10,6 8,7 23 13 34 19 E 1018,0 8 0,0
18.04.2019 07:00:00 10,0 8,1 21 11 34 18 E 1017,8 - 0,0
18.04.2019 06:00:00 10,1 8,2 21 12 30 16 E 1017,6 - 0,0
18.04.2019 05:00:00 9,9 8,0 24 13 29 15 E 1017,7 12 0,0
18.04.2019 04:00:00 10,0 8,1 19 11 29 16 E 1018,1 - 0,0
18.04.2019 03:00:00 10,2 8,5 22 12 34 18 E 1017,9 - 0,0
18.04.2019 02:00:00 10,3 8,4 22 12 31 17 E 1018,1 - 0,0
18.04.2019 01:00:00 10,3 8,4 16 8 26 14 E 1018,3 - 0,0
18.04.2019 00:00:00 10,5 8,6 19 11 26 14 E 1018,1 - 0,0
17.04.2019 23:00:00 10,3 8,4 19 10 37 20 E 1018,0 6 0,0
17.04.2019 22:00:00 10,0 7,9 23 13 33 18 E 1017,6 - 0,0
17.04.2019 21:00:00 10,1 8,0 22 12 28 15 E 1017,2 - 0,0
17.04.2019 20:00:00 10,7 8,5 20 11 31 17 E 1017,3 6 0,0
17.04.2019 19:00:00 11,3 9,0 22 12 34 18 E 1017,5 - 0,0

tt = temperature
td = dewpoint
ff = wind speed
fx = gusts
dd = wind direction
ppp = reduced air pressure
vv = visibility
rr = precipitation

Next stations